Flag for Nicaragua Weather past 2 weeks in Masaya, Nicaragua

Now
75 °F

Rain. Passing clouds.


Feels Like: 74 °F
Forecast: 72 / 85 °F
Wind: 7 mph from East

Location: Managua A. C. Sandino

Current Time: Sep 14, 2014 at 8:28:28 PM

Latest Report: Sep 14, 2014 at 7:00 PM


Visibility: 4 mi

Pressure: 29.89 "Hg

Humidity: 94%

Dew point: 73 °F

Location of MasayaLocation

Historic Weather in Masaya — Graph

°F

Masaya temperature yesterday

Maximum temperature yesterday: 90 °F (at 1:00 PM)
Minimum temperature yesterday: 75 °F (at 12:00 AM)
Average temperature yesterday: 81 °F

Past Weeks' High & Low Weather Summary

 TemperatureHumidityPressure
High95 °F (Sep 2, 1:00 PM)94% (Sep 3, 3:00 PM)29.92 "Hg (Sep 3, 3:00 PM)
Low73 °F (Sep 3, 3:00 PM)52% (Sep 9, 11:00 AM)29.68 "Hg (Sep 10, 4:00 PM)
Average82 °F78%29.81 "Hg
* Reported Aug 30 8:00 PM — Sep 14 7:00 PM, Masaya, Weather by CustomWeather, © 2014

Note: Actual official high and low records may vary slightly from our data, if they occured in-between our weather recording intervals... More about our weather records

Advertising

Masaya weather history for previous 24 hours

 ConditionsComfort  
Time TempWeatherWind HumidityBarometerVisibility
7:00 PM
Sep 14
75 °FRain. Passing clouds.7 mph94%29.89 "Hg4 mi
6:00 PM73 °FThunderstorms. Passing clouds.7 mph89%29.86 "Hg2 mi
5:00 PM75 °FThunderstorms. Scattered clouds.12 mph83%29.83 "Hg2 mi
4:02 PMN/AThunderstorms.16 mphN/AN/A2 mi
3:00 PM77 °FScattered clouds.9 mph89%29.80 "Hg6 mi
2:00 PM88 °FScattered clouds.14 mph62%29.80 "HgN/A
1:00 PM88 °FScattered clouds.18 mph62%29.80 "HgN/A
12:00 PM88 °FScattered clouds.14 mph66%29.83 "HgN/A
11:00 AM86 °FScattered clouds.9 mph75%29.89 "HgN/A
10:00 AM84 °FScattered clouds.5 mph79%29.86 "HgN/A
9:00 AM82 °FScattered clouds.7 mph84%29.86 "HgN/A
8:00 AM81 °FScattered clouds.7 mph84%29.86 "HgN/A
7:00 AM77 °FScattered clouds.5 mph94%29.86 "HgN/A
6:00 AM77 °FScattered clouds.No wind89%29.83 "HgN/A
5:00 AM75 °FPassing clouds.No wind94%29.83 "HgN/A
4:00 AM75 °FPassing clouds.5 mph94%29.80 "HgN/A
3:00 AM75 °FPassing clouds.No wind94%29.80 "HgN/A
2:00 AM77 °FPassing clouds.5 mph89%29.83 "HgN/A
1:00 AM77 °FPassing clouds.No wind89%29.83 "HgN/A
12:00 AM77 °FPassing clouds.No wind89%29.83 "HgN/A
11:00 PM
Sep 13
79 °FPassing clouds.No wind84%29.83 "HgN/A
10:00 PM79 °FPassing clouds.No wind89%29.86 "HgN/A
9:00 PM79 °FPassing clouds.No wind89%29.83 "HgN/A
8:00 PM79 °FPassing clouds.No wind89%29.83 "HgN/A
Weather by CustomWeather, © 2014

See weather overviewHow to use our weather pages